Tracking 20036 objects as of 21-Nov-2019
Live streaming from Space Station
objects crossing your sky now

ATLAS 41E DEB

Track ATLAS 41E DEB now!
10-day predictions


NORAD ID: 15616
Int'l Code: 1985-021F
Perigee: 511.8 km
Apogee: 545.8 km
Inclination: 107.5 °
Period: 95.1 minutes
Semi major axis: 6899 km
RCS: 0.0514 m2 (small)
Launch date: March 13, 1985
Source: United States (US)
Launch site: AIR FORCE WESTERN TEST RANGE (AFWTR)

Note: This is SATELLITE DEBRIS
aabbcc
Your satellite tracking list
Your tracking list is empty




NASA's NSSDC Master Catalog

Two Line Element Set (TLE):
1 15616U 85021F   19325.81296104  .00004477  00000-0  25196-3 0  9994
2 15616 107.4713 277.4312 0024654 338.9970  21.0201 15.14764619844477
Source of the keplerian elements: AFSPC